Wind_Speed
30 30 30 30 31 32 33 34 35 35 34 34 34 35 35 34 35 36 37 38 38 38 38 38 39 39 38 38 37 36 35 36 37 38 39 39 39 40 42 43 45 47 47 47 47 47 48 49 53 56 58 60 60 61 62 63 64 64 63 61 60 59 58 58 58 58 58 59 61
30 29 29 29 30 31 33 33 34 35 35 36 36 36 35 35 35 36 36 37 38 40 40 40 40 40 41 41 40 38 37 37 37 38 40 40 40 41 43 45 47 48 48 47 47 48 49 49 52 55 58 60 60 61 63 65 66 65 65 64 63 61 60 59 58 57 58 59 60
29 29 29 29 30 31 32 33 34 35 35 36 37 37 37 37 37 37 37 38 40 40 40 40 41 41 42 42 42 41 40 40 39 40 42 42 42 42 44 46 47 48 47 47 48 49 51 51 52 55 58 60 60 61 62 64 66 65 65 66 65 64 62 61 59 58 58 58 59
28 28 29 30 30 31 31 32 32 33 34 35 37 38 38 39 39 39 40 41 42 42 42 41 41 42 43 43 42 42 42 41 40 41 42 43 42 43 44 46 47 47 47 47 48 50 52 54 54 55 57 60 61 61 61 63 65 66 66 66 66 66 65 63 62 61 59 58 58
28 28 29 30 31 31 32 31 31 32 34 35 37 39 40 40 41 42 42 42 43 43 44 43 43 43 43 42 42 42 42 41 40 40 41 41 42 43 44 46 47 47 47 48 49 51 53 56 56 56 56 58 60 61 61 61 63 65 66 66 67 67 66 65 65 64 63 60 58
28 28 29 30 31 32 33 33 34 35 35 36 38 40 41 42 42 42 42 42 43 44 45 45 44 44 43 42 41 41 41 40 39 39 39 40 41 42 44 46 47 49 50 50 50 52 54 56 57 56 56 56 58 60 61 60 61 63 64 66 67 67 67 67 67 66 65 63 60
27 27 28 29 30 31 33 34 35 35 35 36 37 38 39 41 42 42 42 42 43 43 44 44 44 43 42 42 41 40 39 39 38 38 39 40 40 41 43 45 48 50 52 53 53 53 54 56 56 56 56 56 57 59 60 60 61 62 64 65 67 68 68 67 67 66 65 62 59
26 26 26 27 28 30 31 33 34 34 35 36 37 37 37 38 41 42 42 41 41 41 41 41 41 41 40 40 40 40 39 38 38 40 41 41 41 42 44 46 48 50 53 54 54 55 56 57 57 56 56 56 57 58 60 61 61 62 63 66 68 69 69 68 67 64 61 58 55
26 25 25 25 26 27 28 30 31 32 33 34 35 36 36 37 40 40 40 39 38 37 37 37 37 37 38 38 39 38 38 38 39 41 42 42 42 43 44 47 49 52 54 56 56 56 57 58 58 57 55 55 57 59 61 63 63 62 62 64 67 69 70 69 65 61 57 54 53
25 25 25 25 25 25 26 27 28 30 31 32 31 31 32 33 34 35 35 35 34 34 35 35 35 35 36 37 37 37 37 38 39 40 42 43 43 43 44 47 50 54 56 57 57 57 58 59 59 58 56 56 57 59 62 64 65 65 64 63 66 68 68 66 61 56 53 52 53
24 24 24 24 23 24 25 26 28 30 31 32 32 31 30 30 30 31 31 32 33 35 35 35 34 34 35 35 36 36 37 38 38 39 41 43 44 44 44 46 50 54 56 58 57 58 58 59 59 59 58 58 58 59 62 64 67 67 65 63 63 64 63 61 57 53 52 52 54
22 22 23 23 22 23 24 27 29 31 33 34 34 34 33 32 32 32 32 34 35 36 37 36 35 34 34 34 35 36 36 36 37 39 42 44 45 44 44 47 50 54 56 57 57 57 58 59 60 60 61 60 60 61 62 64 65 66 65 63 61 59 58 57 54 53 52 53 55
22 23 23 24 24 24 25 27 29 31 32 33 33 33 33 34 34 34 35 36 37 37 37 36 35 34 34 34 34 34 34 35 37 40 43 44 44 43 44 47 51 55 57 57 57 57 58 59 60 61 62 63 63 63 63 64 65 65 64 61 59 57 56 55 54 54 54 55 57
24 25 25 26 27 28 29 30 31 31 30 30 30 31 32 33 34 35 36 37 37 37 37 36 36 35 34 33 32 32 33 36 39 41 43 43 42 42 44 48 53 56 58 58 58 58 59 60 61 62 64 65 66 65 63 63 63 63 63 61 59 57 55 56 56 56 56 57 58
25 26 27 28 29 30 31 32 32 32 31 30 30 30 31 32 33 33 34 35 36 36 36 37 37 37 34 31 30 32 34 37 39 41 41 41 41 43 46 49 53 56 58 59 59 59 60 61 62 63 65 66 67 65 63 62 62 62 62 62 61 58 57 58 59 58 58 59 59
24 25 25 26 27 29 30 31 32 32 32 32 31 31 31 31 31 30 31 32 33 34 35 36 37 36 33 30 30 33 36 38 39 39 40 41 43 45 48 52 55 57 59 60 60 60 61 62 63 64 65 66 67 66 64 61 61 61 61 61 61 60 59 60 61 61 61 61 62
24 25 26 26 27 27 28 30 31 32 32 32 31 31 30 30 29 29 29 30 32 33 34 35 35 33 31 30 31 34 36 37 39 40 42 44 45 47 49 53 56 58 60 61 62 62 63 64 65 66 67 67 67 66 64 61 59 57 57 57 59 59 60 61 62 63 64 63 63
19 21 24 26 27 28 30 31 32 31 30 29 28 28 28 28 29 29 31 32 33 33 33 33 33 33 33 33 33 34 36 38 41 43 45 46 46 47 50 53 56 59 61 63 64 65 66 67 67 68 68 68 67 66 62 57 53 51 51 52 55 57 58 60 61 63 65 64 62
16 20 22 24 26 28 30 31 32 30 28 26 26 26 27 29 30 32 33 34 33 33 32 31 32 34 36 37 36 37 38 40 42 45 47 48 48 49 51 53 56 59 62 64 65 67 68 69 69 68 66 65 63 59 54 49 47 47 48 50 52 54 56 58 60 62 63 63 61
9 12 17 21 24 26 26 26 27 27 27 27 26 27 29 31 32 33 33 33 31 30 29 30 32 35 37 38 38 39 40 41 43 46 48 50 51 52 53 55 57 59 61 62 64 65 66 67 66 63 60 56 52 49 46 44 46 48 50 52 53 55 56 59 60 61 61 62 60
14 8 3 6 9 14 19 21 20 20 20 21 24 28 31 33 32 31 30 30 28 27 27 28 30 32 33 35 38 40 41 42 44 47 49 51 52 53 54 55 56 57 58 58 58 59 59 59 57 53 49 46 44 43 44 45 48 51 53 55 56 57 58 59 61 60 60 59 59
28 23 18 12 6 2 10 15 16 16 16 17 19 22 24 26 26 27 28 27 25 23 21 21 24 25 27 31 37 40 42 43 45 46 47 48 48 49 50 50 51 51 52 51 50 50 49 47 45 43 41 41 43 44 46 48 50 52 54 55 57 57 57 58 59 58 58 58 59
37 34 30 24 17 9 3 2 5 8 10 13 13 15 19 22 23 22 23 23 21 16 13 12 14 17 21 28 35 40 42 43 43 42 42 41 41 41 41 42 43 44 44 44 44 43 41 40 39 39 40 43 45 47 47 48 49 51 52 53 54 55 55 55 56 56 56 57 59
44 42 40 36 31 26 21 17 13 10 6 5 8 9 10 13 15 15 17 18 18 15 11 9 10 12 16 22 29 35 38 38 38 37 36 35 34 35 35 37 38 40 41 41 42 42 41 41 40 41 42 45 47 47 47 47 48 49 50 51 51 51 51 51 53 54 55 56 58
47 46 45 44 42 39 33 27 25 22 17 10 9 9 7 2 6 10 13 16 17 15 12 9 10 11 12 14 18 22 27 30 31 31 31 32 32 33 34 36 37 38 40 41 42 42 42 42 41 40 42 44 45 46 46 47 48 49 50 50 50 50 49 50 51 53 54 55 56
47 47 46 45 44 42 41 38 36 34 30 27 24 22 17 9 6 8 10 11 12 12 12 11 10 11 12 13 12 11 13 17 22 25 28 30 31 31 33 34 35 37 38 39 40 40 39 38 37 38 39 40 42 43 45 46 48 50 51 51 51 50 50 50 51 53 55 56 56
48 47 46 45 45 44 43 41 40 38 36 35 33 32 27 20 11 6 4 4 6 9 12 13 12 11 10 11 11 11 11 13 15 19 22 25 27 28 29 31 32 34 35 36 37 37 36 35 35 35 36 38 39 41 43 46 49 51 52 52 52 51 51 50 51 54 58 60 60
47 47 46 46 46 45 44 43 41 40 39 38 37 36 34 30 23 17 13 11 8 4 4 7 10 12 13 12 12 12 13 15 16 18 20 22 24 26 27 29 30 32 33 35 36 36 36 36 36 36 37 38 39 40 42 45 48 50 51 52 53 52 52 51 51 54 58 63 65
46 45 45 45 46 45 44 44 43 41 40 39 38 37 36 35 33 30 26 23 21 18 15 10 4 4 9 13 15 16 16 16 17 18 20 22 23 25 27 29 31 32 34 36 37 38 38 39 39 39 39 40 40 41 41 42 43 45 47 49 51 52 53 52 51 52 55 61 65
44 44 44 44 44 44 44 43 42 41 39 38 38 37 36 36 35 34 32 29 28 26 24 21 17 12 6 2 8 14 17 18 19 18 19 20 21 23 25 27 29 31 33 35 38 39 41 41 42 43 42 42 41 40 39 38 38 39 41 43 46 48 50 51 51 52 53 57 61
42 42 42 42 42 42 41 41 40 38 38 37 37 37 37 37 36 35 34 32 30 29 27 25 24 22 19 14 8 3 5 11 16 18 18 18 18 19 20 21 23 24 26 29 33 37 40 43 44 44 43 42 41 40 38 37 36 36 37 38 40 42 43 45 47 49 51 55 58
41 41 41 40 40 39 38 38 37 36 36 36 36 37 37 37 36 35 34 33 31 30 30 29 28 26 24 21 18 14 10 4 4 9 13 16 17 17 17 17 19 20 21 22 24 28 34 39 42 42 40 39 39 39 39 38 37 37 37 38 38 38 39 40 42 44 48 52 55
40 40 40 39 39 38 37 36 35 34 34 34 35 36 36 36 36 35 34 33 32 32 31 31 30 29 28 25 23 20 17 13 10 5 1 6 11 15 17 18 19 20 20 20 20 22 25 30 35 37 37 36 36 37 39 39 39 38 38 38 37 37 38 39 41 43 47 51 54
39 39 39 38 38 37 36 35 35 34 33 33 34 35 35 35 35 35 34 33 32 31 31 30 30 29 28 27 25 23 20 17 14 12 9 5 0 6 12 17 20 23 23 23 21 21 21 22 25 30 33 34 35 36 37 38 38 37 36 36 36 36 38 41 44 47 50 54 57
39 38 38 37 37 37 36 36 35 34 34 34 34 34 34 34 34 35 34 33 31 30 29 28 28 27 27 26 26 25 23 21 18 15 13 11 8 5 0 5 11 17 21 23 23 22 21 21 22 24 29 33 36 37 37 37 36 34 33 32 33 36 40 44 47 51 54 57 59
38 38 37 37 36 36 36 36 35 35 35 35 34 34 33 33 33 33 32 31 31 30 29 28 27 26 26 26 26 26 25 23 21 19 16 14 12 11 10 8 4 4 10 16 21 23 23 22 22 24 27 32 36 37 38 37 35 33 31 31 33 37 40 44 47 49 52 54 56
36 36 36 35 35 35 35 35 35 35 35 35 35 34 34 33 32 31 31 30 30 30 29 28 27 26 26 25 25 25 24 24 23 21 20 18 16 15 15 14 12 10 6 4 10 17 22 23 24 25 28 31 33 36 37 38 37 36 34 34 36 38 41 43 44 44 45 47 49
34 34 34 34 34 34 34 34 34 35 35 35 35 34 34 33 32 32 31 30 30 29 29 28 28 27 25 24 23 23 22 22 22 22 21 21 20 19 18 17 15 14 12 9 5 6 13 19 23 26 28 30 32 34 36 38 39 39 39 39 39 41 42 43 43 42 42 43 44
32 32 32 32 32 32 32 33 33 34 34 34 33 33 33 33 33 32 31 30 29 29 28 28 27 26 25 23 22 21 20 20 21 21 21 21 21 20 19 18 17 15 13 12 10 7 5 9 15 20 25 28 31 33 35 37 39 40 41 41 42 43 43 44 43 43 42 43 43
31 31 30 30 30 31 31 31 32 32 32 32 32 32 33 32 32 31 30 29 29 28 27 27 26 26 24 23 21 20 19 19 19 19 20 20 20 20 19 19 18 16 15 13 12 10 9 7 7 11 16 21 26 30 33 35 37 38 39 40 41 42 43 44 44 44 43 44 45
30 30 29 29 29 29 29 29 30 30 30 30 31 31 30 30 30 30 30 29 28 27 27 26 25 24 24 23 22 21 20 19 18 18 18 19 19 19 19 19 18 17 16 15 13 12 11 10 9 9 10 12 16 21 25 29 32 34 36 37 39 40 41 43 44 44 45 46 47
Wind_Direction
245 246 247 246 243 240 237 236 235 235 234 233 232 232 233 234 234 234 234 233 233 234 235 237 239 240 242 243 242 243 243 244 245 247 247 244 239 233 229 228 230 231 232 231 228 224 219 217 218 220 222 224 225 226 225 224 223 222 223 224 225 224 221 217 215 215 218 222 224
244 246 247 246 245 242 239 237 236 235 235 234 234 233 232 232 232 233 233 234 235 236 239 241 243 245 246 247 246 244 242 242 242 244 247 247 242 235 231 229 230 231 232 231 229 225 221 218 218 219 220 221 222 223 223 224 223 223 223 224 226 226 225 221 218 217 219 222 224
245 246 247 247 246 244 242 239 238 238 238 238 238 236 234 233 233 233 234 236 237 239 241 242 244 246 247 248 248 247 245 244 242 244 246 248 245 239 235 232 232 232 232 231 230 227 224 220 218 218 219 220 220 220 221 222 223 222 222 224 225 226 226 223 220 218 218 221 223
247 248 247 247 246 246 245 244 244 245 246 246 245 243 240 237 236 236 237 238 240 241 242 243 244 246 247 248 248 248 248 247 244 245 248 248 246 242 238 235 235 234 233 231 229 228 226 223 220 218 218 219 219 219 219 221 222 222 222 223 224 225 225 224 222 218 216 217 221
249 249 248 248 247 247 247 248 251 254 255 253 250 247 245 243 241 240 240 241 242 243 244 245 245 246 246 247 247 248 249 250 249 250 250 249 247 243 239 237 236 234 232 230 228 228 227 225 223 220 219 219 219 219 219 220 221 222 223 223 223 224 224 223 222 219 217 215 218
249 250 250 249 248 248 249 250 253 255 254 251 247 245 245 246 245 244 243 243 244 245 246 247 247 247 247 247 247 248 250 251 252 251 250 248 245 242 239 237 235 233 231 229 228 227 227 227 225 223 221 220 220 220 220 220 220 221 221 221 222 222 223 222 221 219 217 215 217
248 250 250 250 249 248 248 250 253 253 251 247 244 242 242 243 245 246 246 246 247 247 248 248 248 248 248 248 248 248 249 250 250 248 246 244 241 240 240 238 235 232 230 229 228 227 227 227 225 224 224 223 223 222 221 219 218 219 219 219 220 221 221 220 219 218 216 214 214
249 249 249 249 249 248 248 250 252 253 252 249 245 242 239 239 243 246 248 248 247 247 248 248 249 249 249 249 249 249 248 247 246 245 243 241 239 239 239 237 233 230 229 230 228 227 226 226 224 223 223 224 224 223 222 219 218 217 217 217 218 219 218 217 216 214 212 209 209
250 249 249 249 249 249 250 251 253 255 256 255 251 246 243 241 243 246 247 248 248 248 249 249 250 250 251 250 250 249 247 244 243 243 242 240 239 238 237 234 230 228 228 229 228 227 225 225 225 223 221 221 222 223 223 221 218 216 215 214 214 214 214 213 212 211 208 204 205
253 251 250 250 250 250 252 253 255 257 259 260 258 254 250 248 247 248 249 250 251 251 252 252 252 252 251 250 250 248 245 243 242 241 241 239 239 238 236 230 226 226 227 227 227 225 225 224 224 223 221 220 220 221 222 222 219 216 213 210 209 209 208 208 209 207 203 200 203
254 254 253 253 253 253 253 252 253 254 256 257 257 256 255 254 253 254 254 256 255 255 255 255 255 253 252 251 249 247 244 242 241 240 239 239 239 240 236 229 223 222 223 224 224 224 224 224 224 224 222 221 219 219 220 220 218 215 211 208 206 205 205 205 205 201 199 200 203
260 261 261 260 260 258 255 252 252 252 252 251 251 251 251 252 255 257 259 259 258 257 257 258 256 255 253 251 249 246 244 242 239 238 238 239 240 241 237 229 222 220 221 223 224 224 224 224 224 224 223 221 219 218 217 216 214 211 208 206 205 204 204 203 200 197 197 200 204
267 268 268 268 265 263 261 260 258 256 253 251 249 248 248 250 253 255 257 257 258 258 257 258 257 256 254 252 249 246 242 239 237 237 238 240 241 240 235 229 224 223 223 225 225 224 224 224 224 224 223 221 218 216 214 212 210 208 206 206 205 204 203 200 196 195 197 201 203
264 263 264 264 261 261 263 264 263 261 258 256 255 253 252 251 252 253 253 255 256 257 258 258 258 257 256 253 248 243 239 237 237 238 240 242 242 239 234 230 228 227 227 227 226 226 225 225 224 224 222 220 217 214 212 210 208 207 206 207 206 204 200 196 194 195 198 201 202
263 262 262 261 260 260 260 261 261 260 260 260 260 259 257 255 254 252 252 253 254 255 256 257 257 258 257 253 245 240 238 238 239 242 243 244 244 240 236 233 231 230 229 228 228 227 226 225 224 223 221 218 215 213 211 209 208 207 208 208 207 203 199 195 194 196 199 201 203
273 272 271 269 267 265 263 262 261 260 260 260 261 261 261 259 257 255 253 253 253 253 254 255 256 257 255 248 241 237 238 240 242 245 247 247 245 241 236 233 231 230 229 229 228 227 226 225 224 222 220 217 215 213 211 210 209 208 209 209 208 206 202 199 198 198 201 203 204
277 278 278 278 276 272 267 265 264 263 262 261 261 261 261 260 258 257 257 256 255 254 253 253 254 254 251 245 240 238 239 242 245 247 248 246 243 239 235 231 229 228 228 228 227 226 225 224 222 221 219 216 214 213 211 210 208 208 209 211 212 211 208 205 203 202 203 204 205
270 271 272 273 273 270 267 266 267 266 264 262 260 258 257 257 258 259 260 261 259 257 254 251 250 250 250 248 244 241 241 243 246 247 246 243 240 237 233 229 227 226 225 224 224 223 222 221 219 218 216 214 212 210 209 209 209 211 213 215 216 215 213 210 208 206 206 206 206
270 267 265 265 264 264 265 266 266 266 265 263 260 259 258 259 260 262 263 263 261 258 254 250 248 248 249 248 245 242 242 244 244 243 240 239 237 234 231 228 225 222 220 218 218 217 217 216 214 212 210 208 207 207 209 212 216 220 221 220 218 216 215 213 211 209 208 208 207
295 276 266 262 261 261 260 260 262 263 263 263 263 264 264 265 264 264 263 262 260 257 254 251 249 248 246 244 241 241 242 242 239 235 233 231 230 229 227 225 221 217 213 210 209 209 209 208 207 205 203 202 204 208 214 220 225 226 224 221 218 215 214 213 212 210 209 209 208
47 39 351 269 266 258 253 252 252 253 256 258 259 261 263 264 266 267 266 264 261 259 255 252 251 247 242 236 235 236 237 236 231 227 223 222 222 221 220 218 214 210 206 204 202 201 201 200 199 199 200 204 210 216 221 223 224 222 220 217 214 213 212 211 210 209 208 208 207
57 58 60 64 62 248 244 244 244 245 248 252 256 258 259 261 265 268 268 265 261 256 253 252 250 245 235 227 226 228 228 227 222 218 215 214 213 213 212 210 208 205 203 201 199 198 197 198 199 203 208 214 218 220 220 220 217 215 212 211 209 209 209 208 207 206 206 206 205
58 59 61 63 65 67 70 240 247 255 260 260 272 276 273 268 264 258 253 251 246 241 243 254 254 243 229 218 215 216 217 215 213 210 209 209 209 209 209 208 207 206 205 205 204 204 205 208 212 217 221 223 222 220 218 216 213 210 208 207 207 207 207 206 205 205 205 204 203
56 58 59 61 63 65 67 67 64 54 30 305 299 300 291 272 254 234 219 216 213 215 229 265 268 248 224 211 206 205 206 206 206 207 209 211 214 215 216 216 215 214 214 214 215 216 217 220 222 224 226 226 224 221 219 216 213 210 208 207 207 206 206 206 205 205 204 203 200
53 55 56 58 59 61 62 62 62 62 61 54 50 57 68 102 209 202 190 184 188 195 210 235 246 239 226 213 204 202 202 204 206 209 212 216 219 221 222 222 222 222 221 222 222 222 223 223 224 224 225 225 224 223 221 219 216 213 210 208 206 205 204 205 205 205 203 200 199
49 51 52 54 55 56 56 57 57 57 58 57 56 57 62 81 138 173 178 177 181 192 204 213 220 222 220 218 219 220 218 214 214 215 217 218 219 220 221 223 223 223 223 223 224 223 223 223 223 223 223 222 223 223 222 221 219 216 213 210 207 205 203 204 204 203 201 199 200
45 47 48 50 51 52 52 52 52 51 51 50 50 51 53 60 75 105 137 154 175 193 208 221 229 229 222 216 221 231 240 240 234 229 225 223 221 221 221 222 222 222 222 223 223 223 223 223 223 223 222 221 220 221 221 220 219 217 214 211 209 207 206 206 205 204 202 202 203
40 41 43 44 46 47 48 48 47 47 47 47 48 49 50 52 55 55 52 47 53 91 173 205 222 233 238 238 230 226 229 237 243 243 239 234 231 228 226 225 224 223 223 223 223 223 224 225 225 224 222 219 218 218 219 219 219 218 217 215 213 213 212 213 212 209 207 206 207
36 37 38 39 41 42 43 44 44 44 43 44 44 46 48 50 51 50 48 45 42 42 43 44 51 213 225 233 235 235 233 233 237 241 243 243 239 234 230 227 225 224 223 223 223 223 224 225 225 224 221 218 216 215 216 216 218 218 219 219 220 220 221 222 222 219 214 211 210
34 34 34 35 37 38 39 40 40 40 40 40 41 43 45 47 48 49 48 46 44 42 40 38 39 43 55 172 219 226 228 229 230 233 236 240 240 238 233 229 226 224 224 223 222 222 222 223 222 221 218 216 215 214 213 214 215 217 219 221 222 224 227 229 230 228 222 216 213
33 33 33 33 34 35 35 36 36 37 37 37 38 40 41 43 45 46 46 46 46 44 43 41 39 38 38 40 46 86 197 213 219 223 226 229 233 235 236 236 234 233 231 229 226 223 222 220 219 218 217 215 214 212 211 212 214 216 218 219 221 223 226 229 231 230 225 219 215
32 32 32 33 33 33 33 33 33 33 33 34 35 36 38 40 41 42 43 43 43 42 41 40 38 36 33 32 32 35 42 64 181 210 219 223 224 226 229 234 238 242 244 243 239 233 227 223 220 218 216 214 212 210 209 210 213 216 218 219 219 220 222 224 225 225 223 219 215
30 31 31 32 32 32 32 32 32 31 31 31 32 32 34 35 36 37 38 39 39 40 39 38 37 35 32 30 27 27 29 33 38 44 159 213 217 219 222 225 231 238 245 249 252 251 243 233 224 218 213 210 209 208 209 210 213 216 218 220 221 222 222 222 221 220 218 216 215
28 28 29 29 30 31 31 31 31 31 30 30 30 29 29 30 31 32 33 34 35 36 37 36 35 34 32 30 28 26 24 25 26 28 31 33 112 213 217 222 228 235 241 246 250 254 255 249 235 221 212 208 208 209 211 213 215 218 222 225 229 231 231 229 226 221 218 215 214
26 26 27 27 27 27 28 29 29 29 29 29 29 28 27 27 27 28 29 29 30 32 33 33 33 32 30 29 28 26 25 23 21 22 23 25 28 30 353 226 228 230 234 237 240 243 246 251 248 236 224 216 214 214 215 216 219 223 228 234 238 240 238 235 230 225 221 217 215
25 25 25 25 25 25 25 25 25 26 27 27 27 26 26 26 26 26 26 26 26 27 29 29 29 29 28 27 26 26 25 24 22 20 20 23 28 32 32 25 3 265 237 231 230 230 230 233 238 238 233 227 224 221 220 220 222 227 234 240 244 243 239 234 229 226 223 220 219
24 24 24 24 24 24 23 23 23 23 23 23 23 23 23 23 23 24 23 23 23 24 25 25 26 26 27 26 26 25 24 23 22 21 21 22 27 31 33 31 27 20 3 281 234 225 222 220 222 225 227 228 228 227 226 225 225 229 234 239 242 242 238 233 230 228 226 224 222
24 24 23 23 23 23 22 22 22 21 21 20 19 18 18 18 19 20 21 21 22 23 23 23 23 23 23 23 24 24 23 22 21 21 20 21 23 26 29 30 28 25 20 12 339 255 228 220 219 219 220 223 225 228 228 228 228 229 231 235 237 239 239 237 235 234 232 229 225
24 24 23 23 23 22 22 21 21 20 19 18 17 16 15 15 15 16 17 18 19 21 21 22 22 21 19 18 18 19 20 20 20 20 19 19 19 21 23 24 24 23 20 15 5 344 290 242 226 221 220 220 221 223 225 227 228 229 229 231 233 235 236 238 238 238 237 234 230
24 24 23 23 22 22 21 21 20 19 17 16 15 14 13 12 12 12 12 13 15 16 18 20 21 20 18 16 14 14 14 15 16 17 17 17 17 17 18 20 21 20 19 15 8 357 341 314 271 242 230 225 223 222 222 224 226 227 229 230 230 231 232 234 235 235 235 234 231
23 23 23 23 22 21 20 20 19 18 16 15 14 12 11 10 9 9 9 9 10 12 13 15 17 17 17 16 14 13 11 10 11 11 12 13 13 14 15 16 16 17 17 15 11 4 353 340 324 301 273 251 238 232 228 226 226 226 227 228 229 229 229 229 228 228 228 227 226
Height
1387 1388 1388 1389 1390 1390 1391 1392 1392 1393 1393 1394 1394 1394 1394 1396 1396 1397 1397 1398 1398 1399 1399 1400 1401 1401 1402 1404 1405 1406 1407 1407 1408 1409 1409 1410 1411 1413 1415 1416 1417 1418 1419 1421 1424 1426 1427 1427 1428 1428 1429 1430 1432 1434 1435 1436 1438 1440 1443 1445 1446 1448 1450 1451 1453 1456 1460 1463 1465
1385 1386 1386 1387 1388 1388 1389 1390 1391 1391 1391 1391 1392 1392 1393 1393 1394 1394 1395 1395 1396 1396 1396 1397 1398 1399 1400 1401 1402 1403 1404 1405 1406 1407 1407 1407 1409 1410 1411 1413 1414 1415 1416 1418 1421 1423 1424 1424 1425 1425 1426 1427 1429 1431 1432 1433 1435 1437 1439 1441 1443 1445 1447 1450 1451 1454 1458 1461 1463
1383 1384 1385 1385 1386 1386 1386 1387 1388 1389 1389 1390 1390 1390 1391 1391 1391 1391 1392 1392 1393 1393 1394 1394 1395 1396 1397 1398 1399 1400 1401 1402 1403 1405 1405 1405 1406 1407 1408 1409 1410 1412 1413 1415 1417 1419 1420 1421 1421 1422 1423 1424 1425 1427 1428 1430 1431 1434 1436 1438 1440 1442 1445 1446 1449 1451 1455 1459 1462
1381 1382 1382 1383 1383 1384 1384 1385 1386 1386 1387 1387 1388 1388 1388 1388 1388 1388 1389 1390 1390 1391 1391 1391 1392 1393 1394 1395 1396 1397 1398 1399 1400 1401 1401 1402 1402 1404 1405 1406 1407 1409 1410 1412 1414 1415 1416 1418 1418 1419 1420 1421 1422 1424 1425 1427 1428 1430 1432 1435 1437 1439 1441 1443 1445 1448 1451 1456 1460
1379 1379 1380 1381 1381 1381 1382 1383 1383 1384 1385 1386 1386 1385 1385 1385 1385 1386 1386 1387 1387 1387 1388 1389 1389 1390 1391 1392 1393 1394 1394 1396 1396 1397 1398 1398 1399 1400 1401 1402 1404 1405 1407 1409 1410 1411 1413 1415 1416 1416 1417 1418 1419 1421 1422 1424 1426 1427 1429 1431 1433 1435 1437 1439 1441 1444 1447 1452 1457
1377 1377 1378 1379 1379 1380 1380 1380 1381 1381 1382 1383 1383 1382 1382 1382 1382 1383 1383 1383 1384 1384 1385 1386 1386 1387 1388 1389 1390 1391 1391 1392 1393 1394 1395 1396 1396 1397 1398 1399 1400 1402 1404 1405 1406 1408 1410 1411 1413 1414 1415 1416 1417 1418 1420 1422 1424 1425 1427 1429 1430 1431 1433 1435 1437 1440 1444 1448 1454
1375 1376 1376 1377 1377 1378 1378 1378 1378 1378 1379 1380 1380 1379 1379 1379 1379 1380 1380 1381 1381 1382 1382 1383 1384 1384 1385 1386 1387 1388 1388 1389 1390 1391 1392 1392 1393 1394 1395 1396 1397 1399 1400 1401 1403 1405 1406 1407 1410 1411 1413 1414 1415 1416 1418 1420 1421 1422 1423 1425 1426 1427 1429 1431 1433 1436 1440 1444 1450
1373 1374 1374 1375 1375 1376 1376 1376 1376 1376 1376 1376 1376 1376 1376 1377 1377 1377 1377 1378 1378 1379 1379 1380 1381 1381 1382 1383 1384 1384 1385 1386 1387 1388 1389 1389 1390 1391 1392 1393 1394 1395 1396 1397 1399 1401 1402 1404 1406 1408 1410 1411 1412 1413 1415 1416 1418 1419 1420 1421 1422 1423 1425 1427 1429 1432 1436 1441 1447
1371 1372 1372 1372 1373 1373 1373 1373 1374 1374 1374 1373 1373 1374 1374 1375 1375 1375 1375 1376 1375 1376 1376 1377 1377 1378 1379 1380 1381 1381 1382 1383 1384 1385 1385 1386 1386 1387 1389 1390 1391 1391 1392 1393 1396 1397 1399 1400 1402 1404 1406 1407 1408 1409 1411 1413 1415 1416 1416 1418 1418 1419 1421 1423 1425 1428 1432 1437 1443
1370 1370 1370 1370 1371 1371 1371 1371 1371 1371 1371 1371 1371 1371 1372 1372 1372 1372 1373 1373 1373 1373 1374 1374 1375 1376 1376 1377 1377 1378 1379 1380 1381 1381 1381 1383 1383 1385 1386 1387 1388 1388 1389 1390 1392 1394 1395 1397 1398 1400 1402 1403 1404 1405 1407 1409 1411 1412 1413 1415 1415 1416 1417 1419 1422 1426 1430 1434 1440
1368 1368 1368 1368 1368 1369 1369 1370 1370 1370 1370 1369 1369 1369 1369 1370 1370 1370 1370 1370 1371 1371 1371 1371 1372 1373 1373 1374 1374 1375 1376 1376 1377 1378 1379 1380 1381 1381 1382 1384 1385 1385 1386 1386 1388 1390 1392 1393 1395 1396 1398 1400 1401 1402 1403 1405 1407 1408 1410 1411 1412 1413 1415 1416 1419 1423 1427 1431 1436
1366 1366 1366 1367 1367 1367 1368 1368 1368 1368 1367 1367 1367 1367 1367 1367 1367 1367 1368 1368 1368 1368 1368 1369 1370 1370 1371 1371 1371 1372 1373 1373 1374 1375 1376 1377 1377 1378 1379 1381 1382 1382 1382 1383 1385 1387 1389 1390 1391 1393 1394 1396 1398 1399 1399 1401 1403 1405 1406 1408 1410 1411 1413 1415 1417 1421 1425 1429 1434
1365 1365 1365 1365 1365 1366 1366 1366 1366 1365 1365 1365 1366 1366 1365 1365 1365 1365 1365 1366 1366 1366 1366 1367 1367 1368 1368 1368 1369 1370 1370 1371 1372 1373 1373 1374 1374 1375 1376 1378 1379 1379 1380 1381 1382 1384 1385 1386 1388 1389 1391 1392 1394 1395 1395 1397 1399 1401 1403 1405 1408 1410 1411 1412 1415 1418 1422 1426 1430
1365 1365 1364 1364 1364 1364 1364 1363 1363 1363 1363 1363 1363 1364 1364 1363 1363 1363 1363 1363 1363 1364 1364 1364 1365 1365 1366 1366 1366 1367 1368 1368 1369 1370 1370 1370 1371 1371 1373 1374 1375 1376 1377 1378 1379 1381 1382 1383 1385 1386 1387 1389 1390 1391 1392 1394 1396 1398 1400 1402 1404 1406 1408 1410 1412 1416 1419 1422 1424
1364 1364 1364 1364 1363 1363 1362 1362 1361 1361 1361 1361 1361 1361 1361 1361 1361 1361 1361 1361 1361 1362 1362 1362 1362 1363 1363 1364 1364 1365 1365 1366 1366 1366 1366 1366 1367 1368 1369 1370 1371 1372 1374 1375 1376 1377 1379 1380 1382 1383 1385 1386 1387 1388 1390 1392 1394 1396 1397 1399 1401 1403 1405 1407 1410 1413 1416 1417 1419
1363 1363 1362 1362 1362 1361 1361 1360 1359 1359 1359 1359 1358 1358 1358 1357 1358 1358 1359 1359 1359 1360 1360 1360 1360 1360 1361 1361 1362 1363 1363 1363 1363 1363 1362 1363 1363 1364 1365 1366 1368 1369 1370 1372 1373 1375 1376 1377 1379 1381 1382 1383 1384 1386 1387 1389 1391 1393 1395 1396 1398 1400 1402 1404 1407 1410 1412 1414 1416
1362 1361 1361 1361 1360 1360 1359 1358 1357 1356 1356 1356 1356 1356 1356 1356 1356 1356 1356 1357 1357 1358 1358 1358 1358 1358 1359 1359 1360 1361 1361 1360 1360 1359 1359 1359 1360 1361 1362 1364 1365 1366 1367 1368 1370 1371 1373 1375 1376 1377 1379 1381 1382 1383 1385 1386 1389 1391 1392 1394 1396 1398 1400 1402 1405 1407 1409 1411 1413
1360 1360 1359 1359 1358 1357 1356 1355 1354 1354 1354 1354 1354 1354 1354 1354 1354 1355 1355 1355 1355 1355 1356 1356 1356 1356 1357 1357 1357 1358 1358 1357 1357 1356 1356 1356 1357 1359 1360 1361 1362 1363 1364 1365 1366 1367 1369 1371 1373 1375 1376 1377 1378 1380 1382 1385 1387 1390 1392 1394 1395 1397 1398 1400 1402 1405 1406 1408 1410
1357 1357 1356 1356 1356 1355 1354 1353 1352 1352 1352 1352 1352 1353 1353 1353 1353 1353 1352 1352 1352 1353 1353 1354 1354 1354 1354 1354 1354 1355 1355 1355 1354 1354 1354 1355 1355 1356 1358 1359 1360 1361 1362 1362 1363 1365 1366 1367 1369 1371 1373 1374 1376 1379 1382 1385 1388 1390 1391 1392 1394 1396 1397 1399 1401 1402 1404 1406 1408
1357 1356 1355 1354 1354 1353 1352 1352 1352 1351 1352 1352 1352 1352 1352 1351 1351 1351 1350 1350 1350 1351 1351 1351 1351 1351 1351 1351 1351 1351 1352 1352 1352 1352 1352 1353 1353 1354 1355 1356 1357 1359 1359 1360 1361 1362 1363 1365 1366 1368 1371 1374 1377 1380 1383 1386 1387 1388 1389 1390 1391 1393 1395 1396 1398 1400 1402 1404 1406
1356 1355 1354 1353 1352 1351 1351 1350 1350 1351 1351 1351 1351 1351 1350 1349 1348 1347 1347 1347 1348 1348 1349 1349 1349 1350 1349 1349 1348 1349 1349 1350 1351 1351 1351 1351 1352 1352 1353 1354 1356 1356 1358 1359 1360 1361 1362 1364 1366 1369 1372 1375 1378 1380 1382 1383 1385 1385 1386 1387 1389 1391 1392 1394 1395 1397 1399 1401 1404
1357 1356 1354 1353 1351 1350 1350 1349 1349 1348 1348 1347 1347 1346 1346 1346 1346 1346 1345 1345 1346 1347 1348 1348 1349 1349 1348 1347 1346 1346 1347 1349 1350 1350 1350 1351 1351 1352 1353 1354 1355 1356 1358 1359 1361 1362 1364 1366 1368 1371 1373 1376 1377 1378 1379 1381 1382 1383 1384 1386 1387 1389 1391 1392 1393 1395 1396 1399 1401
1359 1357 1355 1353 1351 1350 1350 1349 1349 1348 1347 1346 1346 1345 1345 1345 1345 1345 1345 1346 1346 1347 1348 1348 1348 1348 1347 1347 1346 1346 1347 1348 1349 1350 1351 1351 1352 1353 1354 1355 1356 1358 1359 1361 1362 1364 1365 1367 1369 1371 1373 1374 1375 1376 1377 1379 1380 1381 1383 1385 1386 1388 1390 1391 1392 1393 1395 1397 1399
1361 1358 1356 1354 1352 1351 1350 1350 1349 1348 1347 1346 1347 1347 1346 1345 1345 1345 1345 1347 1348 1349 1349 1349 1348 1348 1347 1347 1347 1347 1347 1348 1349 1350 1351 1352 1353 1354 1355 1356 1357 1358 1359 1360 1361 1363 1364 1366 1367 1369 1371 1372 1373 1375 1376 1377 1379 1381 1382 1384 1386 1387 1389 1391 1391 1392 1393 1395 1399
1362 1360 1357 1355 1354 1352 1351 1351 1350 1349 1349 1351 1350 1348 1346 1346 1346 1345 1343 1343 1344 1346 1348 1349 1349 1349 1348 1348 1348 1348 1349 1349 1350 1351 1351 1352 1353 1354 1355 1355 1356 1357 1358 1359 1360 1361 1362 1364 1365 1367 1368 1370 1372 1373 1375 1377 1378 1380 1381 1383 1385 1386 1388 1390 1391 1391 1392 1396 1399
1364 1361 1359 1357 1355 1354 1353 1352 1351 1351 1351 1351 1349 1346 1345 1344 1344 1344 1343 1343 1343 1344 1345 1346 1347 1348 1348 1348 1348 1348 1349 1350 1351 1351 1351 1352 1353 1354 1354 1355 1356 1356 1357 1357 1358 1359 1361 1362 1364 1365 1367 1368 1370 1372 1374 1376 1377 1378 1380 1381 1383 1385 1386 1388 1389 1391 1392 1395 1399
1364 1362 1361 1358 1356 1354 1353 1353 1352 1351 1350 1349 1348 1346 1344 1343 1343 1343 1344 1345 1345 1346 1346 1346 1346 1345 1346 1347 1348 1349 1349 1349 1350 1351 1351 1352 1353 1353 1354 1354 1355 1355 1356 1356 1357 1358 1360 1361 1362 1364 1365 1367 1368 1370 1372 1373 1375 1377 1379 1380 1382 1383 1384 1386 1387 1388 1391 1393 1396
1365 1363 1361 1359 1356 1355 1354 1353 1352 1351 1350 1350 1349 1347 1346 1345 1345 1345 1346 1346 1346 1346 1346 1346 1346 1346 1346 1345 1346 1347 1348 1349 1350 1350 1351 1351 1352 1352 1353 1354 1354 1355 1355 1356 1357 1358 1359 1360 1361 1362 1363 1365 1366 1368 1370 1372 1374 1376 1377 1379 1380 1381 1383 1384 1385 1386 1388 1390 1392
1366 1364 1362 1360 1358 1356 1355 1354 1353 1353 1353 1352 1351 1350 1349 1348 1348 1348 1348 1348 1348 1348 1347 1347 1346 1346 1346 1346 1346 1346 1347 1348 1349 1350 1351 1351 1351 1352 1352 1353 1354 1354 1355 1355 1356 1357 1357 1358 1359 1360 1361 1363 1365 1366 1368 1370 1372 1374 1375 1377 1378 1380 1381 1382 1384 1385 1387 1389 1391
1367 1366 1364 1361 1360 1358 1357 1356 1356 1356 1356 1355 1354 1352 1351 1351 1350 1350 1350 1350 1350 1350 1350 1349 1348 1347 1346 1346 1347 1347 1347 1348 1348 1349 1350 1351 1352 1352 1352 1353 1353 1354 1355 1355 1355 1356 1356 1357 1357 1358 1360 1361 1363 1365 1366 1368 1370 1372 1373 1375 1376 1378 1379 1381 1382 1383 1385 1388 1390
1369 1367 1366 1364 1362 1361 1361 1360 1360 1359 1358 1357 1356 1355 1354 1353 1353 1353 1352 1352 1352 1352 1351 1350 1350 1349 1349 1348 1348 1348 1347 1348 1348 1349 1350 1350 1351 1352 1353 1353 1354 1354 1355 1355 1355 1356 1356 1356 1356 1357 1359 1360 1362 1363 1365 1367 1368 1370 1371 1373 1374 1376 1377 1379 1380 1381 1383 1385 1388
1371 1370 1368 1366 1365 1364 1364 1363 1362 1362 1361 1360 1359 1358 1357 1357 1356 1356 1355 1354 1354 1352 1351 1351 1350 1350 1350 1350 1349 1349 1348 1347 1348 1348 1349 1350 1350 1351 1352 1353 1353 1354 1354 1355 1355 1355 1356 1356 1356 1356 1358 1359 1361 1362 1364 1366 1367 1369 1370 1371 1373 1374 1376 1377 1378 1380 1381 1383 1385
1373 1372 1371 1369 1368 1367 1366 1366 1365 1364 1363 1362 1361 1360 1360 1359 1359 1358 1357 1356 1355 1354 1352 1352 1351 1351 1351 1351 1350 1350 1349 1349 1348 1348 1349 1349 1349 1350 1350 1350 1350 1351 1351 1353 1354 1355 1355 1356 1356 1356 1357 1358 1360 1361 1363 1365 1366 1368 1369 1371 1372 1373 1375 1376 1377 1378 1380 1381 1384
1375 1374 1373 1372 1371 1370 1369 1368 1367 1366 1365 1364 1363 1363 1362 1361 1360 1359 1359 1358 1357 1356 1355 1354 1353 1353 1353 1353 1352 1352 1351 1351 1350 1350 1349 1349 1349 1349 1349 1350 1350 1350 1351 1351 1353 1354 1355 1355 1356 1356 1357 1359 1360 1361 1362 1364 1365 1366 1368 1369 1371 1372 1373 1374 1375 1376 1377 1379 1381
1377 1376 1375 1374 1373 1372 1371 1370 1369 1368 1367 1366 1365 1364 1364 1363 1362 1361 1361 1360 1359 1358 1356 1356 1355 1355 1354 1354 1353 1353 1352 1352 1351 1351 1350 1350 1349 1349 1349 1349 1350 1350 1351 1351 1352 1353 1354 1356 1356 1356 1358 1359 1360 1360 1361 1362 1364 1365 1366 1367 1368 1370 1371 1371 1372 1373 1374 1376 1378
1380 1378 1377 1376 1375 1374 1373 1372 1371 1369 1368 1367 1366 1366 1365 1364 1364 1363 1362 1362 1361 1359 1358 1357 1356 1356 1355 1355 1354 1354 1353 1353 1353 1352 1352 1351 1350 1349 1349 1349 1349 1350 1350 1351 1351 1352 1353 1354 1356 1356 1357 1358 1359 1359 1360 1361 1362 1363 1364 1366 1366 1367 1368 1369 1370 1371 1372 1373 1376
1382 1381 1380 1378 1377 1376 1375 1374 1372 1371 1370 1369 1368 1367 1366 1366 1365 1364 1363 1363 1361 1361 1360 1359 1358 1357 1356 1356 1356 1355 1355 1354 1354 1353 1353 1352 1351 1350 1350 1349 1349 1349 1349 1350 1350 1351 1351 1351 1352 1354 1356 1356 1357 1357 1358 1359 1360 1361 1362 1363 1364 1365 1366 1367 1368 1369 1370 1372 1374
1385 1383 1382 1381 1379 1378 1376 1375 1374 1373 1372 1371 1370 1369 1368 1367 1366 1365 1364 1364 1363 1362 1361 1361 1360 1359 1359 1358 1358 1357 1356 1356 1355 1355 1354 1353 1352 1351 1351 1350 1350 1350 1350 1350 1350 1350 1350 1350 1350 1351 1352 1353 1354 1356 1356 1357 1358 1359 1360 1361 1362 1363 1364 1365 1366 1367 1368 1369 1371
1388 1386 1385 1383 1381 1380 1379 1377 1376 1375 1374 1373 1372 1371 1370 1369 1368 1367 1366 1366 1365 1364 1363 1362 1361 1361 1361 1360 1359 1359 1358 1357 1356 1356 1355 1354 1353 1352 1352 1351 1351 1350 1350 1350 1350 1350 1350 1350 1351 1351 1351 1351 1352 1353 1354 1354 1355 1356 1357 1358 1359 1360 1361 1362 1363 1364 1365 1366 1368
1390 1389 1387 1385 1384 1382 1381 1380 1378 1377 1376 1375 1374 1373 1372 1371 1371 1370 1368 1367 1366 1365 1364 1364 1363 1362 1362 1361 1361 1360 1359 1358 1357 1357 1356 1355 1354 1353 1352 1352 1351 1351 1351 1351 1351 1350 1350 1350 1350 1351 1351 1351 1351 1351 1351 1352 1352 1353 1354 1355 1356 1356 1358 1359 1360 1361 1362 1364 1366
1393 1391 1389 1388 1386 1385 1383 1382 1381 1380 1379 1377 1376 1376 1375 1374 1373 1372 1371 1369 1368 1367 1366 1365 1365 1364 1363 1362 1362 1361 1360 1360 1359 1358 1357 1356 1355 1354 1353 1352 1352 1351 1351 1351 1351 1351 1350 1350 1350 1350 1351 1351 1351 1351 1351 1352 1352 1352 1352 1353 1353 1354 1355 1356 1357 1358 1359 1361 1362